{"data":{"norad_id":32790,"epoch":"2026-05-24T21:26:05.116992Z","epoch_age_seconds":88216,"freshness":"FRESH","line1":"1 32790U 08021H   26144.89311478  .00003987  00000+0  28198-3 0  9997","line2":"2 32790  97.8623 124.2235 0011640 119.1239 241.1153 15.05417624981308","mean_motion":15.05417624,"eccentricity":0.001164,"inclination_deg":97.8623,"raan_deg":124.2235,"arg_perigee_deg":119.1239,"mean_anomaly_deg":241.1153,"bstar":0.00028198,"rev_number":98130,"period_min":95.654519851695,"perigee_km":542.15942382196,"apogee_km":558.28864831392,"semimajor_km":6928.3610360679,"source":"CELESTRAK","updated_at":"2026-05-25T13:38:25.487087Z"}}